User: anonymous   Login
Location: Brno
(49.2000°N, 16.6330°E)
Time: 10:15:51
(UTC+02:00)
Language:

Cosmos 1603 - Orbit

View from above orbital plane
View from above orbital plane
View from above satellite
View from above satellite

Ground track
Ground track

The orbit data is extracted from the following two-line orbital elements,

1 15333U 84106A   18114.53161846 +.00000084 +00000-0 +68898-4 0  9998
2 15333 071.0240 160.4199 0017675 094.2852 266.0291 14.14064911732039
Epoch (UTC): 24 April 2018 12:45:31
Eccentricity: 0.0017675
inclination: 71.0240°
perigee height: 833 km
apogee height: 858 km
right ascension of ascending node: 160.4199°
argument of perigee: 94.2852°
revolutions per day: 14.14064911
mean anomaly at epoch: 266.0291°
orbit number at epoch: 73203

The dashed part of the orbit path shows where the satellite is in the earth's shadow,  

DLR